Location: Sungai Kamana Besar
(2.6333°N, 113.4333°E)
Time: 05:03:03
(UTC+00:00)

Ariane H10-3 - Pass Details

Date: 29 May 2022
Orbit: 281 x 29963 km, 4.4° (Epoch: 24 June)

Event Time Altitude Azimuth Distance (km) Brightness Sun altitude
Exits shadow 21:46:15 10° 252° (WSW) 1,353 3.1 -7.7°
Maximum altitude 21:48:41 61° 169° (S) 663 2.2 -7.2°
Drops below altitude 10° 21:56:47 10° 90° (E) 4,367 7.7 -5.3°
Sets 22:05:19 0° 87° (E) 8,117 9.4 -3.3°
